Location: M�nchen
(48.1404°N, 11.6043°E)
Time: 19:55:16
(UTC+01:00)

ISS - Pass Details

Date: 11 January 2018
Orbit: 401 x 407 km, 51.6° (Epoch: 17 January)

Event Time Altitude Azimuth Distance (km) Brightness Sun altitude
Exits shadow 07:14:51 10° 280° (W) 1,494 -1.6 -7.7°
Reaches altitude 10° 07:14:55 10° 279° (W) 1,465 -1.6 -7.7°
Maximum altitude 07:17:52 31° 216° (SW) 746 -2.6 -7.2°
Drops below altitude 10° 07:20:47 10° 152° (SSE) 1,460 -0.1 -6.8°
Sets 07:23:00 0° 142° (SE) 2,317 1.3 -6.4°
